Hutchinson, KS

3:49 AM CST on February 25, 2017 (GMT -0600)
Hutchinson Municipal

Weather History for KHUT - July, 2013

Change the Weather History Date:

Thursday, July 25, 2013

  Actual Average Record
Temperature  
Mean Temperature 76 °F -  
Max Temperature 84 °F 90 °F 107 °F (2012)
Min Temperature 68 °F 66 °F 54 °F (2004)
Cooling Degree Days 11    
Growing Degree Days 26 (Base 50)    
Moisture  
Dew Point 68 °F    
Average Humidity 76    
Maximum Humidity 87    
Minimum Humidity 59    
Precipitation  
Precipitation 0.06 in - - ()
Sea Level Pressure  
Sea Level Pressure 30.01 in    
Wind  
Wind Speed 7 mph (SSE)    
Max Wind Speed 13 mph    
Max Gust Speed 17 mph    
Visibility 9 miles    
Events Rain , Thunderstorm    
Averages and records for this station are not official NWS values.
T = Trace of Precipitation, MM = Missing Value Source: NWS Daily Summary

Daily Weather History Graph

Daily Weather History Graph

Search for Another Location

Airport or City:

Trip Planner

Search our weather history database for the weather conditions in past years. The results will help you decide how hot, cold, wet, or windy it might be!

Date:

Astronomy

Jul. 25, 2013 Rise Set
Actual Time 6:28 AM CDT 8:46 PM CDT
Civil Twilight 5:58 AM CDT 9:16 PM CDT
Nautical Twilight 5:22 AM CDT 9:53 PM CDT
Astronomical Twilight 4:41 AM CDT 10:33 PM CDT
Moon 10:33 PM CDT 9:55 AM CDT
Length of Visible Light 15h 17m
Length of Day
14h 18m
Waning Gibbous, 88% of the Moon is Illuminated
Jul 25
Waning Gibbous
Jul 29
Last Quarter
Aug 6
New
Aug 14
First Quarter
Aug 20
Full

Hourly Weather History & Observations

Time (CDT) Temp. Heat Index Dew Point Humidity Pressure Visibility Wind Dir Wind Speed Gust Speed Precip Events Conditions
12:52 AM 70.0 °F - 61.0 °F 73% 30.02 in 10.0 mi North - - N/A   Clear
1:52 AM 71.1 °F - 60.1 °F 68% 30.02 in 10.0 mi North - - N/A   Clear
2:52 AM 70.0 °F - 62.1 °F 76% 30.01 in 10.0 mi North - - N/A   Clear
3:52 AM 69.1 °F - 62.1 °F 78% 30.01 in 10.0 mi North - - N/A   Clear
4:52 AM 68.0 °F - 62.1 °F 81% 29.99 in 10.0 mi North - - N/A   Clear
5:52 AM 69.1 °F - 63.0 °F 81% 29.99 in 10.0 mi North - - N/A   Clear
6:52 AM 69.1 °F - 64.9 °F 87% 30.01 in 10.0 mi SW 4.6 mph - N/A   Clear
7:52 AM 72.0 °F - 68.0 °F 87% 30.02 in 10.0 mi SE 4.6 mph - N/A   Clear
8:52 AM 73.9 °F - 69.1 °F 85% 30.02 in 10.0 mi Variable 3.5 mph - N/A   Partly Cloudy
9:52 AM 77.0 °F - 70.0 °F 79% 30.02 in 10.0 mi Variable 3.5 mph - N/A   Clear
10:52 AM 82.0 °F 86.3 °F 71.1 °F 69% 30.00 in 10.0 mi SE 9.2 mph - N/A   Clear
11:52 AM 82.0 °F 85.5 °F 69.1 °F 65% 30.01 in 10.0 mi South 11.5 mph - N/A   Clear
12:52 PM 84.9 °F 88.8 °F 69.1 °F 59% 30.00 in 10.0 mi SE 12.7 mph - N/A   Clear
1:52 PM 79.0 °F - 71.1 °F 77% 30.02 in 7.0 mi South 6.9 mph - 0.01 in Rain Light Rain
2:52 PM 81.0 °F 84.9 °F 71.1 °F 72% 30.01 in 10.0 mi South 6.9 mph - 0.00 in   Mostly Cloudy
3:05 PM 80.6 °F 84.6 °F 71.6 °F 74% 30.06 in 10.0 mi SSE 8.1 mph - 0.00 in Rain , Thunderstorm Light Thunderstorms and Rain
3:24 PM 77.0 °F - 69.8 °F 78% 30.08 in 2.5 mi SSW 5.8 mph - 0.05 in Rain , Thunderstorm Heavy Thunderstorms and Rain
3:33 PM 78.8 °F - 71.6 °F 78% 30.07 in 5.0 mi South 12.7 mph 17.3 mph 0.05 in Rain , Thunderstorm Thunderstorms and Rain
3:45 PM 78.8 °F - 71.6 °F 78% 30.06 in 8.0 mi SSE 6.9 mph - 0.05 in Rain Light Rain
3:52 PM 79.0 °F - 71.1 °F 77% 29.99 in 10.0 mi SSE 8.1 mph - 0.05 in Rain Light Rain
4:52 PM 80.1 °F 83.6 °F 71.1 °F 74% 29.99 in 10.0 mi SSE 4.6 mph - 0.00 in   Clear
5:52 PM 81.0 °F 84.9 °F 71.1 °F 72% 29.96 in 10.0 mi ESE 6.9 mph - 0.00 in   Partly Cloudy
6:52 PM 80.1 °F 82.1 °F 66.0 °F 62% 29.95 in 10.0 mi SSE 12.7 mph - N/A   Mostly Cloudy
7:52 PM 78.1 °F - 68.0 °F 71% 29.97 in 10.0 mi South 8.1 mph - N/A   Overcast
8:52 PM 77.0 °F - 69.1 °F 76% 29.96 in 10.0 mi SSE 11.5 mph - N/A   Overcast
9:52 PM 75.0 °F - 69.1 °F 82% 29.96 in 10.0 mi SSE 11.5 mph - 0.00 in   Mostly Cloudy
10:52 PM 75.0 °F - 70.0 °F 84% 29.96 in 10.0 mi SSE 8.1 mph - 0.00 in Rain Light Rain
11:52 PM 75.0 °F - 71.1 °F 87% 29.99 in 8.0 mi Calm Calm - 0.00 in Rain Light Rain